Time,TemperatureF,DewpointF,PressureIn,WindDirection,WindDirectionDegrees,WindSpeedMPH,WindSpeedGustMPH,Humidity,HourlyPrecipIn,Conditions,Clouds,dailyrainin,SoftwareType,DateUTC
2013-01-14 00:03:00,13.0,8.0,30.32,WNW,299,0.0,3.0,81,0.00,,,0.00,,2013-01-14 06:03:00,
2013-01-14 00:12:00,13.0,8.0,30.32,WNW,299,0.0,3.0,81,0.00,,,0.00,,2013-01-14 06:12:00,
2013-01-14 00:22:00,13.0,9.0,30.33,West,281,0.0,2.0,82,0.00,,,0.00,,2013-01-14 06:22:00,
2013-01-14 00:33:00,12.0,8.0,30.33,WNW,299,0.0,2.0,82,0.00,,,0.00,,2013-01-14 06:33:00,
2013-01-14 00:43:00,12.0,8.0,30.33,WNW,299,0.0,2.0,82,0.00,,,0.00,,2013-01-14 06:43:00,
2013-01-14 00:52:00,12.0,8.0,30.33,WNW,298,0.0,1.0,82,0.00,,,0.00,,2013-01-14 06:52:00,
2013-01-14 01:02:00,12.0,8.0,30.35,SW,234,0.0,1.0,83,0.00,,,0.00,,2013-01-14 07:02:00,
2013-01-14 01:12:00,12.0,8.0,30.35,SW,234,0.0,1.0,83,0.00,,,0.00,,2013-01-14 07:12:00,
2013-01-14 01:22:00,12.0,8.0,30.36,West,259,0.0,1.0,82,0.00,,,0.00,,2013-01-14 07:22:00,
2013-01-14 01:33:00,12.0,8.0,30.37,SW,219,0.0,1.0,83,0.00,,,0.00,,2013-01-14 07:33:00,
2013-01-14 01:42:00,12.0,8.0,30.37,SW,219,0.0,1.0,83,0.00,,,0.00,,2013-01-14 07:42:00,
2013-01-14 01:52:00,12.0,8.0,30.37,WSW,251,0.0,1.0,83,0.00,,,0.00,,2013-01-14 07:52:00,
2013-01-14 02:02:00,12.0,8.0,30.38,WSW,251,0.0,2.0,83,0.00,,,0.00,,2013-01-14 08:02:00,
2013-01-14 02:12:00,12.0,8.0,30.38,WSW,251,0.0,2.0,83,0.00,,,0.00,,2013-01-14 08:12:00,
2013-01-14 02:22:00,12.0,8.0,30.38,SW,233,0.0,3.0,83,0.00,,,0.00,,2013-01-14 08:22:00,
2013-01-14 02:32:00,12.0,8.0,30.40,SW,233,0.0,1.0,83,0.00,,,0.00,,2013-01-14 08:32:00,
2013-01-14 02:42:00,12.0,8.0,30.40,SW,233,0.0,1.0,83,0.00,,,0.00,,2013-01-14 08:42:00,
2013-01-14 02:52:00,12.0,8.0,30.40,WSW,238,0.0,3.0,83,0.00,,,0.00,,2013-01-14 08:52:00,
2013-01-14 03:02:00,12.0,8.0,30.40,West,269,0.0,2.0,83,0.00,,,0.00,,2013-01-14 09:02:00,
2013-01-14 03:12:00,12.0,8.0,30.40,West,269,0.0,2.0,83,0.00,,,0.00,,2013-01-14 09:12:00,
2013-01-14 03:22:00,12.0,8.0,30.40,West,269,0.0,2.0,83,0.00,,,0.00,,2013-01-14 09:22:00,
2013-01-14 03:33:00,12.0,8.0,30.43,West,279,1.0,3.0,84,0.00,,,0.00,,2013-01-14 09:33:00,
2013-01-14 03:43:00,12.0,8.0,30.43,West,279,1.0,3.0,84,0.00,,,0.00,,2013-01-14 09:43:00,
2013-01-14 03:53:00,12.0,8.0,30.42,WSW,253,1.0,3.0,83,0.00,,,0.00,,2013-01-14 09:53:00,
2013-01-14 04:02:00,12.0,8.0,30.43,WSW,251,0.0,4.0,83,0.00,,,0.00,,2013-01-14 10:02:00,
2013-01-14 04:12:00,12.0,8.0,30.43,WSW,251,0.0,4.0,83,0.00,,,0.00,,2013-01-14 10:12:00,
2013-01-14 04:22:00,12.0,8.0,30.44,WNW,291,1.0,4.0,83,0.00,,,0.00,,2013-01-14 10:22:00,
2013-01-14 04:32:00,12.0,8.0,30.44,WNW,291,1.0,4.0,83,0.00,,,0.00,,2013-01-14 10:32:00,
2013-01-14 04:42:00,12.0,8.0,30.44,WNW,291,1.0,4.0,83,0.00,,,0.00,,2013-01-14 10:42:00,
2013-01-14 04:52:00,12.0,8.0,30.44,West,265,1.0,3.0,83,0.00,,,0.00,,2013-01-14 10:52:00,
2013-01-14 05:02:00,12.0,8.0,30.43,West,263,0.0,4.0,83,0.00,,,0.00,,2013-01-14 11:02:00,
2013-01-14 05:12:00,12.0,8.0,30.43,West,263,0.0,4.0,83,0.00,,,0.00,,2013-01-14 11:12:00,
2013-01-14 05:22:00,12.0,8.0,30.43,WNW,292,1.0,3.0,84,0.00,,,0.00,,2013-01-14 11:22:00,
2013-01-14 05:32:00,12.0,8.0,30.44,West,265,1.0,3.0,84,0.00,,,0.00,,2013-01-14 11:32:00,
2013-01-14 05:42:00,12.0,8.0,30.44,West,265,1.0,3.0,84,0.00,,,0.00,,2013-01-14 11:42:00,
2013-01-14 05:53:00,12.0,8.0,30.44,West,277,1.0,5.0,84,0.00,,,0.00,,2013-01-14 11:53:00,
2013-01-14 06:03:00,12.0,8.0,30.44,West,275,2.0,4.0,84,0.00,,,0.00,,2013-01-14 12:03:00,
2013-01-14 06:12:00,12.0,8.0,30.44,West,275,2.0,4.0,84,0.00,,,0.00,,2013-01-14 12:12:00,
2013-01-14 06:23:00,12.0,8.0,30.45,NW,312,1.0,5.0,84,0.00,,,0.00,,2013-01-14 12:23:00,
2013-01-14 06:33:00,12.0,8.0,30.45,WNW,283,0.0,4.0,84,0.00,,,0.00,,2013-01-14 12:33:00,
2013-01-14 06:43:00,12.0,8.0,30.45,WNW,283,0.0,4.0,84,0.00,,,0.00,,2013-01-14 12:43:00,
2013-01-14 06:52:00,12.0,8.0,30.45,WNW,296,0.0,4.0,84,0.00,,,0.00,,2013-01-14 12:52:00,
2013-01-14 07:03:00,12.0,8.0,30.45,NW,305,0.0,5.0,84,0.00,,,0.00,,2013-01-14 13:03:00,
2013-01-14 07:12:00,12.0,8.0,30.45,NW,305,0.0,5.0,84,0.00,,,0.00,,2013-01-14 13:12:00,
2013-01-14 07:23:00,12.0,8.0,30.45,NW,305,0.0,5.0,84,0.00,,,0.00,,2013-01-14 13:23:00,
2013-01-14 07:33:00,12.0,8.0,30.46,NNE,28,2.0,5.0,84,0.00,,,0.00,,2013-01-14 13:33:00,
2013-01-14 07:43:00,12.0,8.0,30.46,NNE,28,2.0,5.0,84,0.00,,,0.00,,2013-01-14 13:43:00,
2013-01-14 07:53:00,12.0,8.0,30.46,North,5,1.0,4.0,84,0.00,,,0.00,,2013-01-14 13:53:00,
2013-01-14 08:03:00,12.0,8.0,30.47,WNW,296,1.0,5.0,83,0.00,,,0.00,,2013-01-14 14:03:00,
2013-01-14 08:13:00,12.0,8.0,30.47,WNW,296,1.0,5.0,83,0.00,,,0.00,,2013-01-14 14:13:00,
2013-01-14 08:22:00,13.0,9.0,30.47,NNW,339,1.0,4.0,83,0.00,,,0.00,,2013-01-14 14:22:00,
2013-01-14 08:33:00,13.0,9.0,30.47,NNW,339,1.0,4.0,83,0.00,,,0.00,,2013-01-14 14:33:00,
2013-01-14 08:43:00,13.0,9.0,30.47,NNW,339,1.0,4.0,83,0.00,,,0.00,,2013-01-14 14:43:00,
2013-01-14 08:53:00,14.0,9.0,30.47,West,264,3.0,6.0,81,0.00,,,0.00,,2013-01-14 14:53:00,
2013-01-14 09:03:00,14.0,9.0,30.47,NNE,18,2.0,7.0,81,0.00,,,0.00,,2013-01-14 15:03:00,
2013-01-14 09:12:00,14.0,9.0,30.47,NNE,18,2.0,7.0,81,0.00,,,0.00,,2013-01-14 15:12:00,
2013-01-14 09:23:00,15.0,10.0,30.47,NNE,16,3.0,7.0,81,0.00,,,0.00,,2013-01-14 15:23:00,
2013-01-14 09:33:00,15.0,10.0,30.47,WNW,294,4.0,7.0,80,0.00,,,0.00,,2013-01-14 15:33:00,
2013-01-14 09:43:00,15.0,10.0,30.47,WNW,294,4.0,7.0,80,0.00,,,0.00,,2013-01-14 15:43:00,
2013-01-14 09:53:00,16.0,11.0,30.46,NNE,15,3.0,8.0,81,0.00,,,0.00,,2013-01-14 15:53:00,
2013-01-14 10:03:00,16.0,11.0,30.45,North,5,3.0,6.0,80,0.00,,,0.00,,2013-01-14 16:03:00,
2013-01-14 10:12:00,16.0,11.0,30.45,North,5,3.0,6.0,80,0.00,,,0.00,,2013-01-14 16:12:00,
2013-01-14 10:23:00,17.0,12.0,30.46,NNE,13,2.0,7.0,80,0.00,,,0.00,,2013-01-14 16:23:00,
2013-01-14 10:33:00,18.0,13.0,30.48,NNE,26,1.0,5.0,82,0.00,,,0.00,,2013-01-14 16:33:00,
2013-01-14 10:43:00,18.0,13.0,30.48,NNE,26,1.0,5.0,82,0.00,,,0.00,,2013-01-14 16:43:00,
2013-01-14 10:53:00,19.0,14.0,30.50,North,5,2.0,5.0,80,0.00,,,0.00,,2013-01-14 16:53:00,
2013-01-14 11:03:00,19.0,14.0,30.50,NW,307,0.0,4.0,82,0.00,,,0.00,,2013-01-14 17:03:00,
2013-01-14 11:12:00,19.0,14.0,30.50,NW,307,0.0,4.0,82,0.00,,,0.00,,2013-01-14 17:12:00,
2013-01-14 11:23:00,19.0,14.0,30.49,NW,309,2.0,6.0,80,0.00,,,0.00,,2013-01-14 17:23:00,
2013-01-14 11:33:00,19.0,14.0,30.48,North,5,2.0,6.0,80,0.00,,,0.00,,2013-01-14 17:33:00,
2013-01-14 11:43:00,19.0,14.0,30.48,North,5,2.0,6.0,80,0.00,,,0.00,,2013-01-14 17:43:00,
2013-01-14 11:53:00,19.0,14.0,30.49,NW,310,1.0,5.0,82,0.00,,,0.00,,2013-01-14 17:53:00,
2013-01-14 12:03:00,20.0,15.0,30.48,NW,313,1.0,4.0,81,0.00,,,0.00,,2013-01-14 18:03:00,
2013-01-14 12:13:00,20.0,15.0,30.48,NW,313,1.0,4.0,81,0.00,,,0.00,,2013-01-14 18:13:00,
2013-01-14 12:23:00,20.0,15.0,30.49,NW,310,1.0,5.0,81,0.00,,,0.00,,2013-01-14 18:23:00,
2013-01-14 12:33:00,20.0,15.0,30.50,WNW,294,0.0,3.0,82,0.00,,,0.00,,2013-01-14 18:33:00,
2013-01-14 12:43:00,20.0,15.0,30.50,WNW,294,0.0,3.0,82,0.00,,,0.00,,2013-01-14 18:43:00,
2013-01-14 12:52:00,21.0,16.0,30.48,NW,312,0.0,3.0,81,0.00,,,0.00,,2013-01-14 18:52:00,
2013-01-14 13:03:00,21.0,16.0,30.47,NW,315,1.0,5.0,79,0.00,,,0.00,,2013-01-14 19:03:00,
2013-01-14 13:12:00,21.0,16.0,30.47,NW,315,1.0,5.0,79,0.00,,,0.00,,2013-01-14 19:12:00,
2013-01-14 13:22:00,21.0,16.0,30.47,North,5,0.0,3.0,79,0.00,,,0.00,,2013-01-14 19:22:00,
2013-01-14 13:33:00,21.0,16.0,30.47,NNE,28,1.0,4.0,80,0.00,,,0.00,,2013-01-14 19:33:00,
2013-01-14 13:43:00,21.0,16.0,30.47,NNE,28,1.0,4.0,80,0.00,,,0.00,,2013-01-14 19:43:00,
2013-01-14 13:52:00,21.0,16.0,30.47,NW,306,2.0,5.0,80,0.00,,,0.00,,2013-01-14 19:52:00,
2013-01-14 14:03:00,22.0,16.0,30.48,WSW,255,2.0,4.0,78,0.00,,,0.00,,2013-01-14 20:03:00,
2013-01-14 14:13:00,22.0,16.0,30.48,WSW,255,2.0,4.0,78,0.00,,,0.00,,2013-01-14 20:13:00,
2013-01-14 14:22:00,22.0,16.0,30.49,WNW,285,1.0,4.0,77,0.00,,,0.00,,2013-01-14 20:22:00,
2013-01-14 14:33:00,23.0,16.0,30.49,WNW,299,0.0,4.0,75,0.00,,,0.00,,2013-01-14 20:33:00,
2013-01-14 14:43:00,23.0,16.0,30.49,WNW,299,0.0,4.0,75,0.00,,,0.00,,2013-01-14 20:43:00,
2013-01-14 14:53:00,23.0,16.0,30.49,WNW,290,1.0,4.0,73,0.00,,,0.00,,2013-01-14 20:53:00,
2013-01-14 15:03:00,23.0,15.0,30.50,WNW,294,1.0,4.0,72,0.00,,,0.00,,2013-01-14 21:03:00,
2013-01-14 15:12:00,23.0,15.0,30.50,WNW,294,1.0,4.0,72,0.00,,,0.00,,2013-01-14 21:12:00,
2013-01-14 15:23:00,24.0,16.0,30.50,North,355,0.0,3.0,71,0.00,,,0.00,,2013-01-14 21:23:00,
2013-01-14 15:33:00,24.0,15.0,30.49,NNE,30,0.0,2.0,69,0.00,,,0.00,,2013-01-14 21:33:00,
2013-01-14 15:42:00,24.0,15.0,30.49,NNE,30,0.0,2.0,69,0.00,,,0.00,,2013-01-14 21:42:00,
2013-01-14 15:53:00,24.0,16.0,30.50,NE,39,0.0,2.0,70,0.00,,,0.00,,2013-01-14 21:53:00,
2013-01-14 16:03:00,24.0,15.0,30.50,North,11,0.0,2.0,69,0.00,,,0.00,,2013-01-14 22:03:00,
2013-01-14 16:12:00,24.0,15.0,30.50,North,11,0.0,2.0,69,0.00,,,0.00,,2013-01-14 22:12:00,
2013-01-14 16:23:00,24.0,15.0,30.50,North,11,0.0,3.0,69,0.00,,,0.00,,2013-01-14 22:23:00,
2013-01-14 16:33:00,23.0,14.0,30.48,North,11,0.0,3.0,68,0.00,,,0.00,,2013-01-14 22:33:00,
2013-01-14 16:43:00,23.0,14.0,30.48,North,11,0.0,3.0,68,0.00,,,0.00,,2013-01-14 22:43:00,
2013-01-14 16:52:00,23.0,14.0,30.48,North,11,1.0,3.0,69,0.00,,,0.00,,2013-01-14 22:52:00,
2013-01-14 17:03:00,22.0,14.0,30.48,North,11,0.0,1.0,70,0.00,,,0.00,,2013-01-14 23:03:00,
2013-01-14 17:12:00,22.0,14.0,30.48,North,11,0.0,1.0,70,0.00,,,0.00,,2013-01-14 23:12:00,
2013-01-14 17:23:00,22.0,14.0,30.48,North,11,0.0,0.0,71,0.00,,,0.00,,2013-01-14 23:23:00,
2013-01-14 17:33:00,21.0,14.0,30.48,North,11,0.0,0.0,74,0.00,,,0.00,,2013-01-14 23:33:00,
2013-01-14 17:43:00,21.0,14.0,30.48,North,11,0.0,0.0,74,0.00,,,0.00,,2013-01-14 23:43:00,
2013-01-14 17:52:00,20.0,14.0,30.48,North,11,0.0,0.0,76,0.00,,,0.00,,2013-01-14 23:52:00,
2013-01-14 18:02:00,19.0,13.0,30.48,North,11,0.0,0.0,78,0.00,,,0.00,,2013-01-15 00:02:00,
2013-01-14 18:12:00,19.0,13.0,30.48,North,11,0.0,0.0,78,0.00,,,0.00,,2013-01-15 00:12:00,
2013-01-14 18:22:00,18.0,13.0,30.47,North,11,0.0,0.0,79,0.00,,,0.00,,2013-01-15 00:22:00,
2013-01-14 18:33:00,17.0,12.0,30.47,North,11,0.0,0.0,81,0.00,,,0.00,,2013-01-15 00:33:00,
2013-01-14 18:43:00,17.0,12.0,30.47,North,11,0.0,0.0,81,0.00,,,0.00,,2013-01-15 00:43:00,
2013-01-14 18:52:00,17.0,13.0,30.48,North,11,0.0,0.0,84,0.00,,,0.00,,2013-01-15 00:52:00,
2013-01-14 19:02:00,17.0,13.0,30.48,North,11,0.0,0.0,84,0.00,,,0.00,,2013-01-15 01:02:00,
2013-01-14 19:12:00,17.0,13.0,30.48,North,11,0.0,0.0,84,0.00,,,0.00,,2013-01-15 01:12:00,
2013-01-14 19:22:00,17.0,13.0,30.48,North,11,0.0,0.0,85,0.00,,,0.00,,2013-01-15 01:22:00,
2013-01-14 19:32:00,17.0,13.0,30.47,North,11,0.0,0.0,85,0.00,,,0.00,,2013-01-15 01:32:00,
2013-01-14 19:43:00,17.0,13.0,30.47,North,11,0.0,0.0,85,0.00,,,0.00,,2013-01-15 01:43:00,
2013-01-14 19:52:00,16.0,12.0,30.47,North,11,0.0,0.0,85,0.00,,,0.00,,2013-01-15 01:52:00,
2013-01-14 20:02:00,17.0,13.0,30.47,North,11,0.0,0.0,85,0.00,,,0.00,,2013-01-15 02:02:00,
2013-01-14 20:12:00,17.0,13.0,30.47,North,11,0.0,0.0,85,0.00,,,0.00,,2013-01-15 02:12:00,
2013-01-14 20:22:00,16.0,12.0,30.46,North,11,0.0,0.0,85,0.00,,,0.00,,2013-01-15 02:22:00,
2013-01-14 20:32:00,16.0,12.0,30.47,North,11,0.0,0.0,85,0.00,,,0.00,,2013-01-15 02:32:00,
2013-01-14 20:42:00,16.0,12.0,30.47,North,11,0.0,0.0,85,0.00,,,0.00,,2013-01-15 02:42:00,
2013-01-14 20:52:00,16.0,12.0,30.46,North,11,0.0,0.0,84,0.00,,,0.00,,2013-01-15 02:52:00,
2013-01-14 21:02:00,15.0,11.0,30.46,North,11,0.0,0.0,85,0.00,,,0.00,,2013-01-15 03:02:00,
2013-01-14 21:12:00,15.0,11.0,30.46,North,11,0.0,0.0,85,0.00,,,0.00,,2013-01-15 03:12:00,
2013-01-14 21:22:00,15.0,12.0,30.46,North,11,0.0,0.0,86,0.00,,,0.00,,2013-01-15 03:22:00,
2013-01-14 21:33:00,15.0,12.0,30.46,North,11,0.0,0.0,87,0.00,,,0.00,,2013-01-15 03:33:00,
2013-01-14 21:42:00,15.0,12.0,30.46,North,11,0.0,0.0,87,0.00,,,0.00,,2013-01-15 03:42:00,
2013-01-14 21:52:00,15.0,12.0,30.45,North,11,0.0,0.0,88,0.00,,,0.00,,2013-01-15 03:52:00,
2013-01-14 22:02:00,15.0,12.0,30.45,North,11,0.0,0.0,89,0.00,,,0.00,,2013-01-15 04:02:00,
2013-01-14 22:12:00,15.0,12.0,30.45,North,11,0.0,0.0,89,0.00,,,0.00,,2013-01-15 04:12:00,
2013-01-14 22:22:00,15.0,12.0,30.45,North,11,0.0,0.0,89,0.00,,,0.00,,2013-01-15 04:22:00,
2013-01-14 22:32:00,15.0,12.0,30.45,North,11,0.0,0.0,88,0.00,,,0.00,,2013-01-15 04:32:00,
2013-01-14 22:42:00,15.0,12.0,30.45,North,11,0.0,0.0,88,0.00,,,0.00,,2013-01-15 04:42:00,
2013-01-14 22:52:00,15.0,12.0,30.46,North,11,0.0,0.0,87,0.00,,,0.00,,2013-01-15 04:52:00,
2013-01-14 23:03:00,14.0,11.0,30.46,North,11,0.0,0.0,86,0.00,,,0.00,,2013-01-15 05:03:00,
2013-01-14 23:12:00,14.0,11.0,30.46,North,11,0.0,0.0,86,0.00,,,0.00,,2013-01-15 05:12:00,
2013-01-14 23:22:00,14.0,11.0,30.46,North,11,0.0,0.0,86,0.00,,,0.00,,2013-01-15 05:22:00,
2013-01-14 23:33:00,13.0,10.0,30.46,North,11,0.0,0.0,87,0.00,,,0.00,,2013-01-15 05:33:00,
2013-01-14 23:42:00,13.0,10.0,30.46,North,11,0.0,0.0,87,0.00,,,0.00,,2013-01-15 05:42:00,
2013-01-14 23:52:00,13.0,10.0,30.46,North,11,0.0,0.0,87,0.00,,,0.00,,2013-01-15 05:52:00,